SCP
0 0 0 0 0 0 0 0 0 0 1 1 1 1 0 0 0 0 0 0 0 0 0 0 0 0 0 0 0 0 0 0 0 0 0 0 0 0 0 0 0 0 0 0
0 0 0 0 0 0 0 0 0 0 1 1 1 1 0 0 0 0 0 0 0 0 0 0 0 0 0 0 0 0 0 0 0 0 0 0 0 0 0 0 0 0 0 0
0 0 0 0 0 0 0 0 1 1 1 1 0 0 0 0 0 0 0 0 0 0 0 0 0 0 0 0 0 0 0 0 0 0 0 0 0 0 0 0 0 0 0 0
0 0 0 0 0 0 0 0 1 1 1 0 0 0 0 0 0 0 0 0 0 0 0 0 0 0 0 0 0 0 0 0 0 0 0 0 0 0 0 0 0 0 0 0
0 0 0 0 0 0 0 0 0 0 0 0 0 0 0 0 0 0 0 0 0 0 0 0 0 0 0 0 0 0 0 0 0 0 0 0 0 0 0 0 0 0 0 0
0 0 0 0 0 0 0 0 0 0 0 0 0 0 0 0 0 0 0 0 0 0 0 0 0 0 0 0 0 0 0 0 0 0 0 0 0 0 0 0 0 0 0 0
0 0 0 0 0 0 0 0 0 0 0 0 0 0 0 0 0 0 0 0 0 0 0 0 0 0 0 0 0 0 0 0 0 0 0 0 0 0 0 0 0 0 0 0
0 0 0 0 0 0 0 0 0 0 0 0 0 0 0 0 0 0 0 0 0 0 0 0 0 0 0 0 0 0 0 0 0 0 0 0 0 0 0 0 0 0 0 0
0 0 0 0 0 0 0 0 0 0 0 0 0 0 0 0 0 0 0 0 0 0 0 0 0 0 0 0 0 0 0 0 0 0 0 0 0 0 0 0 0 0 0 0
0 0 0 0 0 0 0 0 0 0 0 0 0 0 0 0 0 0 0 0 0 0 0 0 0 0 0 0 0 0 0 0 0 0 0 0 0 0 0 0 0 0 0 0
0 0 0 0 0 0 0 0 0 0 0 0 0 0 0 0 0 0 0 0 0 0 0 0 0 0 0 0 0 0 0 0 0 0 0 0 0 0 0 0 0 0 0 0
0 0 0 0 0 0 0 0 0 0 0 0 0 0 0 0 0 0 0 0 0 0 0 0 0 0 0 0 0 0 0 0 0 0 0 0 0 0 0 0 0 0 0 0
0 0 0 0 0 0 0 0 0 0 0 0 0 0 0 0 0 0 0 0 0 0 0 0 0 0 0 0 0 0 0 0 0 0 0 0 0 0 0 0 0 0 0 0
0 0 0 0 0 0 0 0 0 0 0 0 0 0 0 0 0 0 0 0 0 0 0 0 0 0 0 0 0 0 0 0 0 0 0 0 0 0 0 0 0 0 0 -0
0 0 0 0 0 0 0 0 0 0 0 0 0 0 0 0 0 0 0 0 0 0 0 0 0 0 0 0 0 0 0 0 0 0 0 0 0 0 -0 -0 -0 -0 -0 -0
0 0 0 0 0 0 0 0 0 0 0 0 0 0 0 0 0 0 0 0 0 0 0 0 0 0 0 0 0 0 0 0 0 0 0 0 0 -0 -0 -0 -0 -0 -0 -0
0 0 0 0 0 0 0 0 0 0 0 0 0 0 0 0 0 0 0 0 0 0 0 0 0 0 0 0 0 0 0 0 0 0 0 -0 -0 -0 -0 -0 0 0 0 0
0 0 0 0 0 0 0 0 0 0 0 0 0 0 -0 0 0 0 0 0 0 0 0 0 0 0 0 0 0 0 0 0 0 0 -0 -0 -0 -0 -0 -0 0 0 0 0
0 0 0 0 0 0 0 0 0 0 -0 -0 -0 -0 -0 -0 0 0 0 0 0 0 0 0 0 0 0 0 0 0 0 0 0 0 -0 -0 -0 -0 -0 -0 0 0 0 0
0 0 0 0 0 0 0 0 0 -0 -0 -0 -0 -0 -0 -0 0 0 0 0 0 0 0 0 0 0 0 0 0 0 0 0 -0 -0 -0 -0 -0 -0 -0 0 0 0 0 0
0 0 0 0 0 0 0 -0 -0 -0 -0 -0 -0 -0 -0 0 0 0 0 0 0 0 0 0 0 0 0 0 0 0 0 -0 -0 -0 -0 -0 -0 -0 0 0 0 0 0 0
0 0 0 0 0 0 0 -0 -0 -0 -0 -0 -0 -0 -0 0 0 0 0 0 0 0 0 0 0 0 0 0 0 0 0 -0 -0 -0 -0 -0 -0 -0 -0 0 0 0 0 0
0 0 0 0 0 0 0 -0 -0 -0 -0 -0 -0 -0 -0 0 0 0 0 0 0 0 0 0 0 0 0 0 0 0 0 0 -0 -0 -0 -0 -0 -0 -0 0 0 0 0 0
0 0 0 0 0 0 0 -0 -0 -0 -0 -0 -0 -0 -0 -0 0 0 0 0 0 0 0 0 0 0 0 0 0 0 0 0 -0 -0 -0 -0 -0 -0 -0 -0 0 0 0 0
0 0 0 0 0 0 0 0 -0 -0 -0 -0 -0 -0 -0 -0 -0 -0 -0 -0 0 0 0 0 0 0 0 0 0 0 0 0 -0 -0 -0 -0 -0 -0 -0 -0 0 0 0 0
0 0 0 0 0 0 0 0 -0 -0 -0 -0 -0 -0 -0 -0 -0 -0 -0 -0 0 0 0 0 0 0 0 0 0 0 0 0 0 -0 -0 -0 -0 -0 -0 -0 0 0 0 0
0 0 0 0 0 0 0 -0 -0 -0 -0 -0 -0 -0 -0 -0 -0 -0 -0 0 0 0 0 0 0 0 0 0 0 0 0 0 0 0 0 0 0 0 -0 -0 -0 -0 0 0
Wind_Speed
4 5 4 4 1 2 4 5 6 2 9 12 12 12 13 13 14 13 12 11 10 10 9 9 9 9 9 9 9 10 11 11 11 10 9 9 8 7 6 6 5 4 3 2
4 4 5 5 5 2 2 3 1 6 8 10 11 11 12 12 13 13 12 11 10 9 9 9 8 9 9 9 9 9 10 10 9 9 8 7 6 5 5 4 4 3 4 3
4 3 5 4 5 5 4 6 2 2 8 11 12 11 10 10 12 12 11 10 9 8 8 8 8 8 9 9 9 9 9 9 8 7 6 5 5 5 4 4 4 4 4 4
3 5 7 7 6 5 6 7 7 10 12 12 13 12 12 11 12 11 10 9 9 8 8 8 9 9 9 9 9 9 8 7 6 6 6 5 5 5 4 4 3 4 4 5
4 5 2 6 3 2 1 5 7 10 12 13 13 13 11 11 11 10 10 9 9 9 9 9 9 8 9 8 8 8 7 6 6 5 5 5 5 5 4 4 4 4 4 5
4 5 2 7 5 3 3 5 6 8 10 9 7 4 6 8 10 10 10 9 9 9 10 9 8 7 8 8 7 7 7 6 6 5 5 5 5 4 4 3 4 4 4 4
5 4 4 7 4 4 3 5 6 6 7 5 5 9 11 10 10 10 10 10 10 10 9 8 6 6 7 7 7 6 6 6 6 5 4 4 3 3 3 3 4 4 4 4
3 3 4 8 3 4 6 5 6 7 8 11 13 14 12 11 10 10 10 10 10 9 8 6 5 6 6 7 6 5 5 5 5 3 3 3 2 2 2 3 3 3 4 5
5 5 6 6 7 5 4 6 6 7 9 12 13 13 12 11 10 10 10 9 8 8 8 6 5 5 6 5 4 4 4 4 4 2 2 2 2 2 2 3 3 4 4 5
1 5 5 5 6 6 6 6 7 7 9 11 13 13 13 11 10 10 10 9 7 7 7 7 6 6 5 4 3 3 4 3 2 1 1 1 2 3 3 4 5 5 5 6
1 5 5 4 5 6 6 7 8 9 10 11 14 14 13 11 10 9 9 8 7 7 7 7 6 6 5 5 3 3 2 1 1 1 2 2 1 3 4 6 6 7 7 7
2 3 1 6 6 6 6 7 9 11 11 12 13 14 13 11 10 9 9 8 7 7 7 7 6 6 5 3 2 2 1 2 2 2 2 2 2 2 3 2 4 1 2 5
4 5 7 9 7 6 7 8 9 11 13 13 13 13 13 11 10 9 8 8 7 7 6 5 4 4 3 2 3 3 4 3 3 3 3 3 3 3 1 4 6 4 1 3
7 8 8 8 8 8 10 11 11 12 13 14 13 12 11 11 10 9 8 7 6 6 5 4 3 3 3 4 4 5 5 2 4 3 3 3 4 3 4 4 3 2 3 3
6 4 8 10 11 11 11 13 14 13 14 13 12 11 11 10 9 8 7 6 5 4 3 3 4 5 5 6 6 6 5 4 3 3 2 3 3 3 4 4 4 5 5 4
8 10 12 13 12 12 13 14 14 14 13 13 12 11 10 9 8 7 6 5 4 4 4 4 5 7 7 6 6 4 1 3 4 3 2 2 3 4 4 4 4 4 5 6
12 13 13 13 14 13 13 13 14 14 13 12 12 11 9 8 8 7 6 5 4 3 3 5 6 7 7 6 6 4 2 4 4 3 2 3 4 4 4 4 4 4 4 4
9 12 13 14 14 14 14 14 14 14 13 12 11 9 8 7 7 6 5 4 2 2 3 5 7 7 6 6 5 4 3 3 2 3 3 4 4 4 4 4 4 4 4 3
12 14 14 14 15 14 14 14 14 13 13 11 10 8 7 7 7 6 4 2 1 3 5 6 4 5 6 6 6 1 3 3 3 3 3 3 1 4 4 4 4 4 5 5
14 15 16 15 15 14 14 13 13 12 10 10 9 8 8 7 6 5 3 3 4 5 5 5 5 5 5 5 7 3 4 4 3 3 3 3 4 4 4 4 5 5 5 5
16 16 16 15 15 14 14 13 12 11 10 9 8 8 8 7 6 4 2 4 5 4 3 1 2 5 5 4 4 4 5 4 4 4 4 4 4 4 4 4 5 5 5 5
16 15 15 15 14 14 13 12 11 11 10 8 8 8 8 7 6 4 2 3 4 3 4 4 6 6 6 8 4 5 5 5 4 4 4 4 4 5 5 5 5 5 5 5
15 14 15 15 14 13 13 11 11 10 9 9 8 7 6 5 3 3 5 3 3 3 3 7 5 4 10 4 5 5 6 5 5 5 5 5 5 5 5 5 5 5 5 5
15 15 14 14 13 13 13 12 11 9 9 8 8 7 6 5 4 3 5 5 2 2 4 6 1 4 9 2 5 5 6 5 5 5 5 5 5 5 5 5 5 5 5 6
14 14 14 14 13 11 12 12 11 10 10 7 8 7 5 4 4 4 4 5 4 2 4 6 3 6 3 5 5 6 7 7 6 5 5 5 5 5 5 5 5 5 5 6
14 12 12 12 10 10 10 10 9 9 8 8 7 6 5 5 5 5 4 4 4 1 2 4 4 2 4 6 6 6 5 5 4 5 6 5 6 6 5 5 6 5 5 6
14 12 11 11 10 10 10 9 9 9 8 8 8 7 6 6 6 5 4 3 3 3 3 4 4 4 5 5 6 5 5 5 5 5 5 5 5 5 5 5 5 5 5 6
Wind_Direction
62 72 108 114 122 219 247 289 280 156 142 147 138 128 122 118 112 105 98 92 88 85 83 82 81 79 77 77 77 82 85 83 81 78 76 73 71 70 71 75 81 84 76 59
134 117 125 94 50 36 14 333 337 123 100 101 109 113 115 115 111 105 101 96 92 89 87 86 87 88 87 84 83 85 85 82 81 80 78 75 73 76 76 72 66 54 40 25
195 173 215 159 33 17 47 32 24 95 109 116 102 91 92 98 100 98 96 95 94 91 88 90 92 93 92 91 90 88 88 89 90 90 87 86 85 78 71 63 51 35 20 8
242 224 238 79 68 64 77 53 44 82 101 99 94 83 71 76 90 92 93 94 95 97 97 95 96 96 96 96 97 97 97 95 95 96 92 83 76 70 59 46 32 20 11 1
260 243 167 128 107 9 36 82 73 102 108 112 116 101 72 66 80 89 93 95 97 100 101 100 101 104 104 105 106 105 101 97 92 89 86 79 71 62 46 32 22 7 12 357
258 263 254 86 61 349 265 123 106 117 125 136 162 142 102 95 94 96 98 100 103 103 102 101 104 111 110 108 106 100 94 90 87 80 71 66 61 48 43 26 16 0 11 357
265 258 82 50 348 277 273 84 110 116 121 118 64 80 110 110 103 104 106 107 109 107 104 106 114 114 109 105 97 94 94 91 85 77 72 65 61 45 26 14 13 359 354 349
291 269 78 19 353 30 59 86 102 103 98 96 101 107 113 114 115 115 113 110 110 109 108 112 115 113 106 98 96 95 95 92 86 68 49 61 48 27 6 352 345 351 350 350
11 40 69 50 64 73 80 95 95 103 112 119 121 121 120 119 117 116 115 114 116 115 112 108 102 93 93 94 93 92 92 84 81 84 64 22 353 352 341 347 348 354 354 353
124 111 107 95 92 82 74 84 93 107 121 127 126 127 126 123 121 121 120 119 120 117 108 99 92 83 79 82 83 83 82 77 70 42 48 45 332 353 0 3 0 358 357 354
215 125 140 134 105 95 93 98 105 110 118 126 129 130 129 126 127 125 119 116 111 101 98 98 94 86 82 82 83 79 74 52 356 5 16 343 8 28 5 38 25 351 354 353
360 90 134 114 118 117 118 113 116 118 119 125 129 129 128 127 128 126 122 116 109 104 101 99 97 89 79 69 44 360 346 347 344 350 359 341 1 116 127 55 126 153 340 339
49 69 81 110 116 115 114 116 120 124 126 126 127 130 129 128 127 124 120 115 107 105 102 97 90 80 63 19 340 332 326 330 326 334 336 341 353 356 71 162 175 169 141 3
115 114 117 125 120 118 118 116 115 118 123 126 128 129 129 127 126 122 116 111 109 108 101 88 61 39 7 337 321 314 308 307 292 310 331 347 356 358 2 12 41 89 119 43
144 128 125 125 123 123 125 125 124 124 125 127 130 131 131 127 123 117 115 115 117 113 87 47 16 4 348 332 321 312 310 326 330 335 332 357 0 3 18 26 25 26 22 26
135 125 129 132 131 134 137 136 131 132 132 133 134 132 128 124 121 119 119 117 112 86 51 14 359 353 344 334 319 299 293 72 322 312 337 14 19 18 24 33 37 31 20 12
147 147 145 142 141 141 142 141 137 136 136 135 132 129 129 127 125 123 118 104 83 61 22 1 356 349 346 349 330 327 0 120 194 260 27 27 25 26 30 30 34 31 31 29
154 150 149 147 144 141 140 138 138 138 137 134 132 134 134 132 126 120 116 116 117 76 28 13 4 341 357 8 353 344 7 35 41 41 44 35 22 33 39 38 33 28 22 43
139 141 143 143 142 142 142 142 142 140 138 139 138 133 125 119 118 121 128 132 97 62 38 22 347 334 20 24 323 6 34 46 61 60 65 95 22 44 40 37 37 33 26 21
140 142 143 143 145 144 142 142 141 139 141 140 135 133 130 126 129 130 130 101 45 28 21 3 347 18 26 33 319 21 46 44 52 61 55 51 51 50 48 42 37 34 32 30
146 146 146 146 146 146 145 145 144 145 145 145 144 139 133 132 137 144 176 114 84 22 349 260 357 26 31 1 299 35 49 44 48 55 52 57 58 53 50 46 43 37 32 33
151 150 150 148 149 148 149 151 152 151 150 150 145 139 140 144 146 136 85 52 76 0 325 36 49 36 352 311 33 49 51 48 52 61 61 54 55 56 55 49 47 44 38 35
154 154 153 154 154 152 153 157 157 155 155 154 151 153 152 139 141 146 129 104 75 22 4 52 45 349 302 309 52 57 55 50 54 63 69 63 58 56 58 57 53 48 41 37
157 157 157 157 156 157 160 161 158 158 160 157 151 150 151 151 148 126 97 111 72 337 53 82 64 300 286 26 56 57 59 59 63 67 70 73 70 65 61 59 58 55 51 45
160 160 160 161 163 163 161 160 158 161 163 154 149 155 168 154 138 126 117 114 122 255 109 121 199 275 301 56 59 62 59 46 39 51 73 68 71 74 69 62 57 57 53 47
162 164 163 169 167 163 163 165 166 166 164 160 158 157 153 145 141 144 152 139 126 178 95 118 131 206 62 68 68 67 79 100 96 77 71 72 73 72 70 68 66 60 57 49
165 163 165 171 170 171 170 171 167 166 166 164 157 153 154 157 159 157 156 143 133 114 89 87 84 77 74 75 76 77 75 74 74 78 82 78 77 78 80 75 69 65 61 58